Rawlins, WY

6:56 PM MDT on May 25, 2018 (GMT -0600)
Rawlins Municipal

Weather History for KRWL - November, 2011

Change the Weather History Date:

Friday, November 18, 2011

  Actual Average Record
Temperature  
Mean Temperature 34 °F 29 °F  
Max Temperature 46 °F 39 °F 61 °F (2008)
Min Temperature 22 °F 19 °F -11 °F (1971)
Degree Days  
Heating Degree Days 31 36  
Month to date heating degree days 654 576  
Since 1 July heating degree days 1463 1635  
Cooling Degree Days 0 0  
Month to date cooling degree days 0 0  
Year to date cooling degree days 242 186  
Moisture  
Dew Point 21 °F    
Average Humidity 63    
Maximum Humidity 88    
Minimum Humidity 37    
Precipitation  
Precipitation 0.03 in 0.02 in 0.20 in (1953)
Month to date precipitation 0.87 0.36  
Year to date precipitation 9.32 8.63  
Sea Level Pressure  
Sea Level Pressure 29.51 in    
Wind  
Wind Speed 21 mph (West)    
Max Wind Speed 38 mph    
Max Gust Speed 52 mph    
Visibility 7 miles    
Events Fog , Snow    
T = Trace of Precipitation, MM = Missing Value Source: NWS Daily Summary

Daily Weather History Graph

Daily Weather History Graph

Search for Another Location

Airport or City:

Astronomy

Nov. 18, 2011 Rise Set
Actual Time 7:01 AM MST 4:45 PM MST
Civil Twilight 6:31 AM MST 5:15 PM MST
Nautical Twilight 5:57 AM MST 5:49 PM MST
Astronomical Twilight 5:24 AM MST 6:22 PM MST
Moon No Moon Rise 12:39 PM MST (11/18)
Length of Visible Light 10h 44m
Length of Day
9h 44m
Waning Gibbous, 48% of the Moon is Illuminated
Nov 18
Waning Gibbous
Nov 24
New
Dec 2
First Quarter
Dec 10
Full
Dec 17
Last Quarter

Hourly Weather History & Observations

Time (MST) Temp. Windchill Dew Point Humidity Pressure Visibility Wind Dir Wind Speed Gust Speed Precip Events Conditions
12:53 AM 37.0 °F 26.2 °F 18.0 °F 46% 29.63 in 10.0 mi SW 21.9 mph 36.8 mph N/A   Mostly Cloudy
1:53 AM 36.0 °F 23.2 °F 18.0 °F 48% 29.60 in 10.0 mi SSW 28.8 mph 36.8 mph N/A   Clear
2:53 AM 37.9 °F 25.5 °F 17.1 °F 43% 29.56 in 10.0 mi SW 31.1 mph 48.3 mph N/A   Clear
3:53 AM 36.0 °F 23.0 °F 17.1 °F 46% 29.57 in 10.0 mi SSW 29.9 mph 43.7 mph N/A   Clear
4:53 AM 35.1 °F 21.8 °F 18.0 °F 50% 29.56 in 10.0 mi SSW 29.9 mph 39.1 mph N/A   Clear
5:53 AM 34.0 °F 21.3 °F 19.0 °F 54% 29.57 in 10.0 mi SSW 25.3 mph 40.3 mph N/A   Scattered Clouds
6:53 AM 35.1 °F 22.0 °F 19.0 °F 52% 29.56 in 10.0 mi SSW 28.8 mph 40.3 mph N/A   Mostly Cloudy
8:53 AM 37.9 °F 25.9 °F 19.0 °F 47% 29.57 in 10.0 mi SW 28.8 mph 41.4 mph N/A   Mostly Cloudy
9:53 AM 39.0 °F 27.4 °F 19.0 °F 45% 29.54 in 10.0 mi SW 28.8 mph 38.0 mph N/A   Overcast
10:53 AM 42.1 °F 31.5 °F 19.9 °F 41% 29.52 in 10.0 mi SW 28.8 mph 42.6 mph N/A   Overcast
11:53 AM 43.0 °F 32.2 °F 21.0 °F 42% 29.46 in 10.0 mi SW 32.2 mph 43.7 mph N/A   Clear
12:53 PM 45.0 °F 35.6 °F 19.0 °F 36% 29.43 in 10.0 mi SW 27.6 mph 44.9 mph N/A   Clear
1:53 PM 44.1 °F 34.6 °F 19.9 °F 38% 29.44 in 10.0 mi WSW 26.5 mph 36.8 mph N/A   Overcast
2:53 PM 43.0 °F 33.8 °F 19.9 °F 40% 29.41 in 10.0 mi WSW 23.0 mph 32.2 mph N/A   Overcast
3:53 PM 41.0 °F 33.9 °F 21.9 °F 47% 29.44 in 10.0 mi West 12.7 mph - N/A   Overcast
4:53 PM 34.0 °F 26.0 °F 26.1 °F 73% 29.46 in 10.0 mi NW 10.4 mph - N/A   Mostly Cloudy
5:53 PM 32.0 °F 28.7 °F 25.0 °F 75% 29.46 in 10.0 mi WNW 3.5 mph - N/A   Overcast
6:53 PM 32.0 °F 26.4 °F 26.1 °F 79% 29.44 in 10.0 mi NNW 5.8 mph - N/A   Overcast
7:53 PM 30.9 °F 20.7 °F 25.0 °F 79% 29.45 in 10.0 mi NW 13.8 mph - N/A   Overcast
9:53 PM 28.0 °F 17.5 °F 24.1 °F 85% 29.47 in 6.0 mi WNW 12.7 mph - 0.00 in Snow Light Snow
10:07 PM 28.4 °F 18.5 °F 24.8 °F 86% 29.51 in 1.8 mi WNW 11.5 mph - 0.00 in Snow Light Snow
10:23 PM 24.8 °F 15.3 °F 23.0 °F 93% 29.52 in 1.0 mi NNW 9.2 mph - 0.00 in Snow Light Snow
10:30 PM 24.8 °F 12.4 °F 21.2 °F 86% 29.52 in 1.0 mi NNW 15.0 mph - 0.00 in Snow Light Snow
10:35 PM 24.8 °F 12.9 °F 21.2 °F 86% 29.53 in 0.8 mi NNW 13.8 mph - 0.00 in Snow Light Snow
10:53 PM 23.0 °F 10.6 °F 19.9 °F 88% 29.49 in 0.5 mi North 13.8 mph - 0.01 in Fog , Snow Snow
11:12 PM 21.2 °F 8.3 °F 19.4 °F 93% 29.52 in 1.2 mi North 13.8 mph 23.0 mph 0.01 in Snow Light Snow
11:36 PM 21.2 °F 10.1 °F 19.4 °F 93% 29.53 in 0.5 mi North 10.4 mph - 0.01 in Fog , Snow Snow
11:51 PM 21.2 °F 11.7 °F 19.4 °F 93% 29.53 in 1.0 mi North 8.1 mph - 0.02 in Snow Light Snow
11:53 PM 21.9 °F 14.5 °F 19.9 °F 92% 29.52 in 1.0 mi NNW 5.8 mph - 0.02 in Snow Light Snow
11:56 PM 21.2 °F 14.9 °F 19.4 °F 93% 29.54 in 0.8 mi NNW 4.6 mph - 0.00 in Snow Light Snow